sat.trackr.live / text

‹ back to catalog

STARLINK-31222

NORAD 58828 · 2024-017C

PAYLOAD ACTIVE UNKNOWN

§ Identity

Operator
Country
US
Launch date
2024-01-24
Launch site
AFWTR
Launch vehicle
Mass (kg)
RCS (m²)

Purposes: comms

External: N2YO · Heavens-Above · Gunter

§ Orbital elements

Epoch: 2026-09-20T13:53:21.079680Z

Period
93.85 min
Inclination
53.1602°
Eccentricity
0.0001209
Mean motion
15.34389844 rev/d
Perigee alt
461.9 km
Apogee alt
463.6 km
Semi-major
6,840.9 km
B*
1.5253e-5
RAAN
17.0259°
Arg perigee
78.4520°
Mean anomaly
281.6619°
Rev number
14,992

§ Raw data

STARLINK-312221 58828U 24017C   26263.57871620  .00000139  00000+0  15253-4 0  99922 58828  53.1602  17.0259 0001209  78.4520 281.6619 15.34389844149929

JSON: /api/v1/satellites/58828 · /tle

For live sub-satellite position, see the globe view (requires WebGL).

§ Visibility from observer

Set your observer location to see the next 7 days of passes ≥ 10°. The values pass through the URL so the page stays shareable.

No JS? Fill the form by hand. The geolocation button needs JavaScript.